CW0262 Weather Reports


Display with metric or nautical units.
time (UTC)temp
F
wind
direction
speed
MPH
gust
MPH
rain 1hr
in
rain 24hr
in
rain mn
in
humidity
%
barometer
mb
20260508113205 74 293 1.0 5.0 0.00 0.00 0.00 79 1014.2
20260508111204 74 298 1.0 3.0 0.00 0.00 0.00 91 1014.2
20260508110704 73 284 1.0 3.0 0.00 0.00 0.00 94 1014.2
20260508110204 72 298 0.0 3.0 0.00 0.00 0.00 96 1014.2
20260508104704 69 281 2.0 3.0 0.00 0.00 0.00 98 1014.2
20260508104204 69 281 0.0 0.0 0.00 0.00 0.00 98 1013.5
20260508103704 69 281 0.0 0.0 0.00 0.00 0.00 97 1013.2
20260508103203 69 281 0.0 0.0 0.00 0.00 0.00 97 1013.2
20260508101705 69 337 0.0 0.0 0.00 0.00 0.00 98 1013.2
20260508101205 69 337 0.0 0.0 0.00 0.00 0.00 98 1013.2
20260508100703 69 337 0.0 0.0 0.00 0.00 0.00 97 1013.2
20260508100203 69 337 0.0 0.0 0.00 0.00 0.00 97 1013.2
20260508094204 69 337 0.0 0.0 0.00 0.00 0.00 97 1013.2
20260508093704 69 337 0.0 0.0 0.00 0.00 0.00 97 1013.2
20260508093205 70 337 0.0 0.0 0.00 0.00 0.00 97 1013.2
20260508091704 70 337 0.0 0.0 0.00 0.00 0.00 97 1013.2
20260508091204 70 337 0.0 0.0 0.00 0.00 0.00 97 1013.2
20260508090705 70 337 0.0 0.0 0.00 0.00 0.00 98 1013.2
20260508090205 70 337 0.0 0.0 0.00 0.00 0.00 98 1013.2
20260508084704 71 307 0.0 0.0 0.00 0.00 0.00 97 1013.2
20260508084204 71 307 0.0 0.0 0.00 0.00 0.00 97 1013.2
20260508083704 71 307 0.0 0.0 0.00 0.00 0.00 97 1013.2
20260508083205 71 307 0.0 0.0 0.00 0.00 0.00 97 1013.2
20260508081703 71 320 0.0 0.0 0.00 0.00 0.00 98 1013.2
20260508080704 71 326 0.0 0.0 0.00 0.00 0.00 99 1013.2
20260508080204 71 326 0.0 0.0 0.00 0.00 0.00 99 1013.2
20260508074704 71 285 0.0 0.0 0.00 0.00 0.00 99 1013.2
20260508074204 71 285 0.0 0.0 0.00 0.00 0.00 99 1013.2
20260508073204 72 285 0.0 0.0 0.00 0.00 0.00 98 1013.2
20260508071704 72 285 0.0 0.0 0.00 0.00 0.00 97 1013.2
20260508071203 72 285 0.0 0.0 0.00 0.00 0.00 96 1013.2
20260508070704 72 285 0.0 0.0 0.00 0.00 0.00 96 1013.2
20260508070204 72 285 0.0 0.0 0.00 0.00 0.00 96 1013.2
20260508064704 72 285 0.0 0.0 0.00 0.00 0.00 95 1013.2
20260508064205 73 285 0.0 0.0 0.00 0.00 0.00 95 1013.2
20260508063704 73 285 0.0 0.0 0.00 0.00 0.00 95 1013.2
20260508063204 73 285 0.0 0.0 0.00 0.00 0.00 95 1013.2
20260508061704 73 286 0.0 0.0 0.00 0.00 0.00 94 1014.2
20260508060704 74 285 0.0 0.0 0.00 0.00 0.00 93 1014.2
20260508060205 74 285 0.0 2.0 0.00 0.00 0.00 93 1014.2
20260508054703 74 280 0.0 2.0 0.00 0.00 0.00 90 1014.2
20260508054204 74 278 0.0 0.0 0.00 0.00 0.00 90 1014.2
20260508053704 75 270 0.0 0.0 0.00 0.00 0.00 89 1014.2
20260508051704 75 266 0.0 0.0 0.00 0.00 0.00 88 1014.2
20260508050705 75 267 2.0 3.0 0.00 0.00 0.00 88 1014.2
20260508050203 75 277 2.0 3.0 0.00 0.00 0.00 88 1014.2
20260508044704 76 238 2.0 3.0 0.00 0.00 0.00 87 1014.2
20260508043704 76 270 1.0 3.0 0.00 0.00 0.00 87 1014.2
20260508041203 77 237 5.0 6.0 0.00 0.00 0.00 85 1014.2
20260508040704 77 222 5.0 6.0 0.00 0.00 0.00 85 1014.2
20260508040204 77 226 5.0 9.0 0.00 0.00 0.00 86 1014.2
20260508034704 78 229 5.0 6.0 0.00 0.00 0.00 85 1014.2
20260508034204 78 220 3.0 6.0 0.00 0.00 0.00 85 1014.2
20260508031703 78 259 5.0 6.0 0.00 0.00 0.00 83 1014.2
20260508030704 79 231 6.0 8.0 0.00 0.00 0.00 83 1014.2
20260508030204 79 223 5.0 7.0 0.00 0.00 0.00 82 1014.2
20260508024705 80 212 4.0 6.0 0.00 0.00 0.00 82 1014.2
20260508024205 80 208 5.0 8.0 0.00 0.00 0.00 82 1013.5
20260508023203 80 229 5.0 10.0 0.00 0.00 0.00 82 1013.2
20260508021704 80 218 6.0 8.0 0.00 0.00 0.00 82 1013.2
20260508021205 80 218 5.0 6.0 0.00 0.00 0.00 82 1013.2
20260508020704 81 219 6.0 9.0 0.00 0.00 0.00 81 1013.2
20260508020205 81 199 6.0 10.0 0.00 0.00 0.00 81 1013.2
20260508014204 81 202 5.0 8.0 0.00 0.00 0.00 81 1013.2
20260508013704 81 195 6.0 8.0 0.00 0.00 0.00 82 1013.2
20260508013204 81 207 5.0 9.0 0.00 0.00 0.00 82 1013.2
20260508011705 82 203 6.0 9.0 0.00 0.00 0.00 82 1013.2
20260508010704 82 182 5.0 9.0 0.00 0.00 0.00 81 1013.2
20260508010204 82 185 7.0 10.0 0.00 0.00 0.00 81 1013.2
20260508004704 83 177 6.0 9.0 0.00 0.00 0.00 80 1013.2
20260508004204 83 186 5.0 6.0 0.00 0.00 0.00 80 1013.2
20260508003706 83 184 5.0 8.0 0.00 0.00 0.00 79 1013.2
20260508003204 83 176 5.0 8.0 0.00 0.00 0.00 78 1013.2
20260508001704 84 149 4.0 7.0 0.00 0.00 0.00 77 1013.2
20260508001204 84 169 3.0 6.0 0.00 0.00 0.00 76 1013.2
20260508000704 84 173 5.0 8.0 0.00 0.00 0.00 76 1013.2
20260508000205 84 155 5.0 9.0 0.00 0.00 0.00 75 1013.2
20260507234704 85 161 6.0 10.0 0.00 0.00 0.00 73 1013.2
20260507234205 85 138 5.0 8.0 0.00 0.00 0.00 72 1013.2
20260507233704 86 141 7.0 8.0 0.00 0.00 0.00 72 1013.2
20260507233205 86 173 5.0 10.0 0.00 0.00 0.00 72 1013.2
20260507231705 87 153 7.0 10.0 0.00 0.00 0.00 71 1012.2
20260507231204 87 129 7.0 9.0 0.00 0.00 0.00 71 1012.2
20260507230204 88 134 6.0 12.0 0.00 0.00 0.00 69 1012.2
20260507224705 89 131 8.0 10.0 0.00 0.00 0.00 68 1012.2
20260507224204 89 127 5.0 9.0 0.00 0.00 0.00 69 1012.2
20260507223704 89 145 5.0 9.0 0.00 0.00 0.00 68 1012.2
20260507223204 89 132 6.0 13.0 0.00 0.00 0.00 67 1012.2
20260507221704 90 125 8.0 10.0 0.00 0.00 0.00 66 1012.2
20260507221204 90 140 7.0 13.0 0.00 0.00 0.00 67 1012.2
20260507220703 90 118 7.0 10.0 0.00 0.00 0.00 66 1012.2
20260507220205 90 130 8.0 13.0 0.00 0.00 0.00 66 1012.2
20260507214705 91 122 6.0 10.0 0.00 0.00 0.00 67 1012.2
20260507213705 91 118 7.0 10.0 0.00 0.00 0.00 65 1012.2
20260507213204 92 102 8.0 10.0 0.00 0.00 0.00 64 1012.2
20260507211704 94 108 5.0 9.0 0.00 0.00 0.00 59 1013.2
20260507211204 96 121 7.0 10.0 0.00 0.00 0.00 57 1012.5
20260507210703 98 132 1.0 6.0 0.00 0.00 0.00 49 1012.2
20260507210203 98 275 6.0 10.0 0.00 0.00 0.00 47 1012.2
20260507204704 98 251 6.0 9.0 0.00 0.00 0.00 47 1012.2
20260507204204 98 249 6.0 12.0 0.00 0.00 0.00 47 1012.5
20260507203705 98 235 7.0 10.0 0.00 0.00 0.00 47 1013.2
20260507203203 98 230 7.0 13.0 0.00 0.00 0.00 47 1013.2
20260507201704 98 283 7.0 13.0 0.00 0.00 0.00 47 1013.2
20260507201203 98 264 8.0 15.0 0.00 0.00 0.00 47 1013.2
20260507200704 98 267 10.0 13.0 0.00 0.00 0.00 47 1013.2
20260507200204 98 296 6.0 14.0 0.00 0.00 0.00 46 1013.2
20260507194704 99 264 7.0 10.0 0.00 0.00 0.00 48 1013.2
20260507194204 99 242 3.0 10.0 0.00 0.00 0.00 47 1013.2
20260507193204 99 248 8.0 13.0 0.00 0.00 0.00 48 1013.2
20260507191703 99 277 10.0 13.0 0.00 0.00 0.00 47 1014.2
20260507191204 99 237 6.0 13.0 0.00 0.00 0.00 49 1014.2
20260507190704 99 257 7.0 12.0 0.00 0.00 0.00 49 1014.2
20260507190204 98 231 7.0 15.0 0.00 0.00 0.00 50 1014.2
20260507184705 98 238 7.0 12.0 0.00 0.00 0.00 51 1014.2
20260507184203 97 244 9.0 15.0 0.00 0.00 0.00 50 1014.2
20260507183204 97 327 7.0 13.0 0.00 0.00 0.00 50 1014.2
20260507181703 97 261 7.0 13.0 0.00 0.00 0.00 50 1014.2
20260507180204 98 245 7.0 13.0 0.00 0.00 0.00 52 1014.2
20260507174705 98 291 8.0 10.0 0.00 0.00 0.00 53 1015.2
20260507173704 98 216 6.0 10.0 0.00 0.00 0.00 54 1015.2
20260507173204 97 249 6.0 15.0 0.00 0.00 0.00 54 1015.2
20260507171204 97 270 9.0 13.0 0.00 0.00 0.00 54 1015.2
20260507170704 97 264 7.0 13.0 0.00 0.00 0.00 54 1015.2
20260507170204 96 266 7.0 13.0 0.00 0.00 0.00 55 1015.2
20260507164705 97 284 6.0 10.0 0.00 0.00 0.00 54 1015.2
20260507164203 96 261 5.0 12.0 0.00 0.00 0.00 55 1015.2
20260507161204 94 274 7.0 12.0 0.00 0.00 0.00 56 1015.2
20260507160704 94 295 7.0 10.0 0.00 0.00 0.00 56 1015.2
20260507160204 95 302 6.0 10.0 0.00 0.00 0.00 56 1015.2
20260507154704 96 231 5.0 9.0 0.00 0.00 0.00 56 1016.2
20260507154205 95 212 5.0 8.0 0.00 0.00 0.00 57 1016.2
20260507153704 95 275 6.0 6.0 0.00 0.00 0.00 57 1016.2
20260507153205 94 265 6.0 12.0 0.00 0.00 0.00 57 1016.2
20260507151705 94 232 7.0 10.0 0.00 0.00 0.00 58 1016.2
20260507151205 93 233 7.0 12.0 0.00 0.00 0.00 58 1016.2
20260507150704 93 229 8.0 10.0 0.00 0.00 0.00 58 1016.2
20260507150203 93 208 5.0 12.0 0.00 0.00 0.00 58 1016.2
20260507144204 92 217 6.0 8.0 0.00 0.00 0.00 60 1016.2
20260507143704 91 195 5.0 8.0 0.00 0.00 0.00 59 1016.2
20260507143204 91 217 8.0 12.0 0.00 0.00 0.00 60 1016.2
20260507141704 90 242 7.0 10.0 0.00 0.00 0.00 63 1016.2
20260507140704 89 223 7.0 9.0 0.00 0.00 0.00 65 1016.2
20260507140203 88 241 5.0 10.0 0.00 0.00 0.00 65 1016.2
20260507134704 87 208 6.0 8.0 0.00 0.00 0.00 69 1016.2
20260507134205 87 216 7.0 12.0 0.00 0.00 0.00 69 1016.2
20260507133705 87 228 7.0 9.0 0.00 0.00 0.00 69 1016.2
20260507133204 87 209 6.0 12.0 0.00 0.00 0.00 69 1016.2
20260507131704 89 206 6.0 9.0 0.00 0.00 0.00 66 1016.2
20260507131205 88 224 5.0 8.0 0.00 0.00 0.00 70 1016.2
20260507130704 86 237 6.0 8.0 0.00 0.00 0.00 73 1016.2
20260507130204 85 213 5.0 8.0 0.00 0.00 0.00 75 1016.2
20260507124703 84 216 3.0 6.0 0.00 0.00 0.00 78 1016.2
20260507123703 86 198 5.0 6.0 0.00 0.00 0.00 73 1016.2
20260507123204 84 213 1.0 6.0 0.00 0.00 0.00 82 1016.2
20260507121704 79 248 0.0 2.0 0.00 0.00 0.00 93 1016.2
20260507121204 77 266 0.0 2.0 0.00 0.00 0.00 94 1016.2
20260507120704 77 328 0.0 0.0 0.00 0.00 0.00 96 1016.2
20260507120203 76 328 0.0 0.0 0.00 0.00 0.00 96 1016.2
20260507114703 75 328 0.0 0.0 0.00 0.00 0.00 98 1016.2
20260507114204 75 328 0.0 0.0 0.00 0.00 0.00 99 1016.2
20260507113703 75 328 0.0 0.0 0.00 0.00 0.00 100 1016.2